BEIDOU 11 (C05)

Last updated on Oct. 23, 2020, 5:57 a.m. UTC

1 38091U 12008A   20296.96993772  .00000043  00000-0  00000-0 0  9990
2 38091   1.7442  69.8103 0002566 219.3323 150.5880  1.00269698 31798
UTC
Height (km)
Latitude
Longitude
Inclination
Orbital Period
UTC large
Height (km)
Speed (km/s)
/
Latitude / Longitude
Inclination (degrees)
Orbital Period (minutes)
Azimuth
Elevation
Range (km)
Doppler Factor
iOS Compass Heading
iOS Angle

Next 30 passes for location: Hong Kong

Rise time Rise Azimuth (degrees) Set time Set Azimuth (degrees) Duration Max altitude (degrees)

No matching passes for this satellites